Hourly Data Report for October 12, 2013

All times are specified in Local Standard Time (LST). Add 1 hour to adjust for Daylight Saving Time where and when it is observed.

KAMLOOPS A
BRITISH COLUMBIA

50°42'09.000" N
120°26'55.000" W
345.30 m
1163781
71887
YKA

Download Data

Hourly Data (October 2013)
Hourly Data Report for October 12, 2013
Temp Definition
°C
Dew Point Temp Definition
°C
Rel Hum Definition
%
Wind Dir Definition
10's deg

Wind Spd Definition
km/h
Visibility Definition
km
Stn Press Definition
kPa
Hmdx Definition


Wind Chill Definition


Weather Definition


TIME
00:00 Legend Double Dagger 6.4 1.7 72 30 5 64.4 97.79     LegendNANA
01:00 Legend Double Dagger 6.4 1.5 71 27 6 64.4 97.84     Cloudy
02:00 Legend Double Dagger 6.0 1.5 73 26 6 64.4 97.85     LegendNANA
03:00 Legend Double Dagger 7.3 1.6 67 24 7 64.4 97.86     LegendNANA
04:00 Legend Double Dagger 5.0 1.1 76 34 6 64.4 97.88     Mostly Cloudy
05:00 Legend Double Dagger 6.2 1.0 69 29 5 64.4 97.93     LegendNANA
06:00 Legend Double Dagger 5.4 0.8 72 31 5 32.2 97.96     LegendNANA
07:00 Legend Double Dagger 5.8 1.2 72 33 5 64.4 98.00     Cloudy
08:00 Legend Double Dagger 6.2 1.4 71 10 2 64.4 98.05     LegendNANA
09:00 Legend Double Dagger 7.3 1.8 68 11 2 64.4 98.08     LegendNANA
10:00 Legend Double Dagger 8.6 2.8 67 33 2 64.4 98.10     Cloudy
11:00 Legend Double Dagger 9.2 2.8 64 28 4 64.4 98.11     LegendNANA
12:00 Legend Double Dagger 10.1 2.3 58 28 5 64.4 98.08     LegendNANA
13:00 Legend Double Dagger 10.5 1.9 55 21 5 64.4 98.04     Mostly Cloudy
14:00 Legend Double Dagger 12.2 2.1 50 9 1 64.4 98.04     LegendNANA
15:00 Legend Double Dagger 11.5 2.6 54 2 3 64.4 98.07     Rain Showers
16:00 Legend Double Dagger 12.7 1.4 46 27 21 64.4 98.08     Mostly Cloudy
17:00 Legend Double Dagger 10.6 0.1 48 27 17 64.4 98.12     LegendNANA
18:00 Legend Double Dagger 9.4 -1.0 48 28 19 64.4 98.20     LegendNANA
19:00 Legend Double Dagger 7.5 -0.9 55 25 14 64.4 98.25     Mainly Clear
20:00 Legend Double Dagger 8.5 -0.5 53 22 12 64.4 98.25     LegendNANA
21:00 Legend Double Dagger 8.9 -0.1 53 22 12 64.4 98.29     LegendNANA
22:00 Legend Double Dagger 6.8 0.9 66 10 15 64.4 98.34     Cloudy
23:00 Legend Double Dagger 6.0 0.8 69 8 10 64.4 98.37     LegendNANA

Notes on Data Quality.

Legend

  • E = Estimated
  • M = Missing
  • NA = Not Available
  • ‡ = Partner data that is not subject to review by the National Climate Archives
Date modified: